Regional Weather Roundup
Issued by NWS

Home | Current Version | Previous Version | Graphics & Text | Print | Product List | Glossary On
Versions: 1 2 3 4 5 6 7 8 9 10 11 12 13 14 15 16 17 18 19 20 21 22 23 24 25 26 27 28 29 30 31 32 33 34 35 36 37 38 39 40 41 42 43 44 45 46 47 48 49 50
000
ASUS45 KPSR 020000
RWRAZ

ARIZONA REGIONAL HOURLY WEATHER ROUNDUP
NATIONAL WEATHER SERVICE PHOENIX AZ
500 PM MST WED APR 01 2015

NOTE: FAIR INDICATES FEW OR NO CLOUDS BELOW 12,000 FEET WITH NO
SIGNIFICANT WEATHER AND/OR OBSTRUCTIONS TO VISIBILITY.

AZZ001>003-036-020100-
NORTHWEST ARIZONA

CITY           SKY/WX    TMP DP  RH WIND       PRES   REMARKS
KINGMAN        SUNNY     77   8   7 W12       29.87F
6HR MIN TEMP:  71; 6HR MAX TEMP:  79;

$$

AZZ004>008-015-016-018-020100-
NORTH CENTRAL ARIZONA

CITY           SKY/WX    TMP DP  RH WIND       PRES   REMARKS
GRAND CANYON   MOSUNNY   64   9  11 W14G25    29.97S
6HR MIN TEMP:  60; 6HR MAX TEMP:  67;

PRESCOTT       SUNNY     69  20  15 SW13      29.95F
6HR MIN TEMP:  66; 6HR MAX TEMP:  72;

FLAGSTAFF      NOT AVBL
PAYSON         SUNNY     70  27  19 SW12G20   29.99S
PAGE           SUNNY     73  -4   5 W14G26    29.83F
6HR MIN TEMP:  71; 6HR MAX TEMP:  77;

$$

AZZ009>014-017-020100-
NORTHEAST ARIZONA

CITY           SKY/WX    TMP DP  RH WIND       PRES   REMARKS
WINSLOW        NOT AVBL
SAINT JOHNS    SUNNY     70  15  12 SW24G32   29.94R
6HR MIN TEMP:  68; 6HR MAX TEMP:  73;

WINDOW ROCK    MOSUNNY   67  10  11 SW21G28   29.95R
6HR MIN TEMP:  63; 6HR MAX TEMP:  70;

$$

AZZ023-020100-
GREATER PHOENIX AREA

CITY           SKY/WX    TMP DP  RH WIND       PRES   REMARKS
PHOENIX        MOSUNNY   88  29  12 W9G22     29.76F
6HR MIN TEMP:  84; 6HR MAX TEMP:  91;

GLENDALE       MOSUNNY   90  25   9 SW15      29.78F
DEER VALLEY    SUNNY     84  26  12 SW10G20   29.78F
6HR MIN TEMP:  79; 6HR MAX TEMP:  87;

SCOTTSDALE     SUNNY     86  26  11 W8G16     29.81F
6HR MIN TEMP:  80; 6HR MAX TEMP:  87;

MESA-FALCON    MOSUNNY   90  23   9 SW14      29.79F
MESA-GATEWAY   SUNNY     86  27  11 W16G22    29.81F
CHANDLER       MOSUNNY   88  21   8 SW14      29.78F
$$

AZZ027-028-020100-
SOUTHWEST MARICOPA COUNTY AND PINAL COUNTY

CITY           SKY/WX    TMP DP  RH WIND       PRES   REMARKS
CASA GRANDE    SUNNY     88  28  11 W9G17     29.79S
6HR MIN TEMP:  82; 6HR MAX TEMP:  90;

$$

AZZ503-504-507>509-020100-
SOUTHEAST ARIZONA

CITY           SKY/WX    TMP DP  RH WIND       PRES   REMARKS
TUCSON         SUNNY     86  17   8 W15G24    29.88S
6HR MIN TEMP:  82; 6HR MAX TEMP:  89;

RYAN FIELD       N/A     90  25   9 MISG      29.86F
NOGALES        SUNNY     80  31  16 SW14G29   29.95S
6HR MIN TEMP:  76; 6HR MAX TEMP:  83;

SAFFORD        MOSUNNY   84  31  14 W13G20    29.83S
6HR MIN TEMP:  76; 6HR MAX TEMP:  87;

$$

AZZ020-021-025-026-031-020100-
SOUTHWEST ARIZONA

CITY           SKY/WX    TMP DP  RH WIND       PRES   REMARKS
YUMA           MOSUNNY   89  28  11 SW8       29.76F
6HR MIN TEMP:  82; 6HR MAX TEMP:  90;

$$

CAZ031-033-041-043-047-048-061-020100-
SOUTHERN CALIFORNIA

CITY           SKY/WX    TMP DP  RH WIND       PRES   REMARKS
DOWNTOWN L.A.  SUNNY     69  52  54 VRB3      29.91S
6HR MIN TEMP:  69; 6HR MAX TEMP:  74;

L.A. AIRPORT   MOSUNNY   66  57  72 W14       29.92F
6HR MIN TEMP:  65; 6HR MAX TEMP:  68;

SAN DIEGO      MOSUNNY   70  54  56 W10       29.94S
6HR MIN TEMP:  66; 6HR MAX TEMP:  71;

BURBANK        SUNNY     71  48  43 S12       29.90S
6HR MIN TEMP:  68; 6HR MAX TEMP:  75;

ONTARIO        MOSUNNY   76  48  37 SW10G21   29.88F
6HR MIN TEMP:  63; 6HR MAX TEMP:  77;

RIVERSIDE      SUNNY     78  47  33 W12       29.88F
6HR MIN TEMP:  62; 6HR MAX TEMP:  78;

PALM SPRINGS   SUNNY     89  32  13 NW18G24   29.77F
6HR MIN TEMP:  83; 6HR MAX TEMP:  92;

EL CENTRO NAS  MOSUNNY   91  24   9 NE8       29.74F
6HR MIN TEMP:  83; 6HR MAX TEMP:  92;

IMPERIAL       SUNNY     91  24   9 VRB7      29.74F
6HR MIN TEMP:  83; 6HR MAX TEMP:  91;

BLYTHE         SUNNY     88  29  12 SE12      29.75F
6HR MIN TEMP:  79; 6HR MAX TEMP:  89;

$$

NVZ020-UTZ003-020100-
SOUTHERN NEVADA-UTAH

CITY           SKY/WX    TMP DP  RH WIND       PRES   REMARKS
LAS VEGAS      NOT AVBL
SALT LAKE CITY PTSUNNY   51   0  12 NW12      30.04R
6HR MIN TEMP:  45; 6HR MAX TEMP:  53;

$$

NMZ009-TXZ055-020100-
NEW MEXICO-WEST TEXAS

CITY           SKY/WX    TMP DP  RH WIND       PRES   REMARKS
ALBUQUERQUE    MOSUNNY   74  22  14 W21G26    29.86F
6HR MIN TEMP:  70; 6HR MAX TEMP:  76;

EL PASO        MOSUNNY   82  32  16 W23G30    29.87S
6HR MIN TEMP:  75; 6HR MAX TEMP:  84;

$$


........................KEY........................
SKY/WX - SKY CONDITION/WEATHER
TMP    - TEMPERATURE IN FAHRENHEIT
DP     - DEW POINT IN FAHRENHEIT
RH     - RELATIVE HUMIDITY IN PERCENT
WIND   - DIRECTION AND SPEED IN MILES PER HOUR (MPH)
VRB    - VARIABLE WIND DIRECTION
PRES   - MEAN SEA LEVEL PRESSURE IN INCHES OF MERCURY
         F - FALLING PRESSURE   R - RISING PRESSURE
         S - STEADY PRESSURE
VSB    - VISIBILITY IN MILES
HX     - HEAT INDEX IN FAHRENHEIT
WCI    - WIND CHILL INDEX IN FAHRENHEIT
TC     - TEMPERATURE IN CELSIUS WHICH IS ALSO KNOWN AS
         TEMPERATURE IN CENTIGRADE
AFB    - AIR FORCE BASE
         LUKE AFB IS LUKE AIR FORCE BASE
         DAVIS-MONTHAN IS DAVIS-MONTHAN AIR FORCE BASE
NAS    - NAVAL AIR STATION
         EL CENTRO NAS IS EL CENTRO NAVAL AIR STATION
N/A    - NOT AVAILABLE



USA.gov is the U.S. government's official web portal to all federal, state and local government web resources and services.